Regional Weather Roundup
Issued by NWS Northern Indiana

Home | Current Version | Previous Version | Text Only | Print | Product List | Glossary Off
Versions: 1 2 3 4 5 6 7 8 9 10 11 12 13 14 15 16 17 18 19 20 21 22 23 24 25 26 27 28 29 30 31 32 33 34 35 36 37 38 39 40 41 42 43 44 45 46 47 48 49 50

000
ASUS43 KIWX 040600
RWRIWX

KIWX WEATHER ROUNDUP
NATIONAL WEATHER SERVICE NORTHERN INDIANA
200 AM EDT MON MAY 04 2015

NOTE: "FAIR" INDICATES FEW OR NO CLOUDS BELOW 12,000 FEET WITH NO
SIGNIFICANT WEATHER AND/OR OBSTRUCTIONS TO VISIBILITY.

* THESE STATIONS ARE NOT UNDER NWS QUALITY CONTROL. THEY ALSO MAY NOT
  REPORT WEATHER SUCH AS PRECIPITATION OR FOG.

INZ001>027-040700-
NORTHERN INDIANA

CITY           SKY/WX    TMP DP  RH WIND       PRES   REMARKS
SOUTH BEND     LGT RAIN  68  48  48 S13       29.98S
6HR MIN TEMP:  68; 6HR MAX TEMP:  76; 6HR PCP: TRACE;

GOSHEN         CLOUDY    68  46  45 S15       30.00S
6HR MIN TEMP:  68; 6HR MAX TEMP:  74;

ANGOLA*        CLEAR     64  55  72 S6        30.03R
FORT WAYNE     CLOUDY    62  49  62 S9        30.05R
6HR MIN TEMP:  60; 6HR MAX TEMP:  71;

PERU/GRISSOM   CLOUDY    65  49  56 S10       30.02S
6HR MIN TEMP:  62; 6HR MAX TEMP:  70;


$$
INZ028>050-040700-
CENTRAL INDIANA

CITY           SKY/WX    TMP DP  RH WIND       PRES   REMARKS
LAFAYETTE      PTCLDY    64  47  53 S6        30.01S
6HR MIN TEMP:  64; 6HR MAX TEMP:  74;

MUNCIE*        MOCLDY    64  48  56 S8        30.06S
6HR MIN TEMP:  64; 6HR MAX TEMP:  75;

INDIANAPOLIS   CLEAR     62  46  55 S9        30.04S
6HR MIN TEMP:  61; 6HR MAX TEMP:  73;


$$
MIZ043>046-050>051-056>058-064>065-071>073-077>080-040700-
SOUTHWEST LOWER MICHIGAN

CITY           SKY/WX    TMP DP  RH WIND       PRES   REMARKS
BATTLE CREEK   CLOUDY    68  47  46 S13       30.00S
6HR MIN TEMP:  67; 6HR MAX TEMP:  74; 6HR PCP: TRACE;

BENTON HARBOR  CLOUDY    61  54  77 NE5       29.96S
6HR MIN TEMP:  60; 6HR MAX TEMP:  75; 6HR PCP:  0.06;

COLDWATER*     CLOUDY    67  44  44 S6        30.01S
6HR MIN TEMP:  67; 6HR MAX TEMP:  73;

HILLSDALE*     MOCLDY    66  47  49 S8        30.03F
6HR MIN TEMP:  66; 6HR MAX TEMP:  74;

HOLLAND        LGT RAIN  63  53  70 S14       29.98R
6HR MIN TEMP:  57; 6HR MAX TEMP:  74; 6HR PCP: TRACE;

GRAND RAPIDS   CLOUDY    64  48  56 SW10      29.97S
6HR MIN TEMP:  62; 6HR MAX TEMP:  73;

KALAMAZOO      CLOUDY    66  49  54 S8        30.00R
6HR MIN TEMP:  65; 6HR MAX TEMP:  72; 6HR PCP: TRACE;

STURGIS*       CLOUDY    64  46  52 CALM      30.01S
THREE RIVERS*  LGT RAIN  66  48  52 S7        30.01S

$$
OHZ001>008-015>018-024>025-040700-
NORTHWEST OHIO

CITY           SKY/WX    TMP DP  RH WIND       PRES   REMARKS
DEFIANCE       PTCLDY    63  48  58 S7        30.05R
6HR MIN TEMP:  62; 6HR MAX TEMP:  75;

FINDLAY        CLEAR     59  46  62 S9        30.06R
6HR MIN TEMP:  58; 6HR MAX TEMP:  72;

TOLEDO EXPRESS MOCLDY    66  46  48 S9        30.05R
6HR MIN TEMP:  62; 6HR MAX TEMP:  75;

TOLEDO METCALF PTCLDY    63  46  54 S8        30.06R
6HR MIN TEMP:  61; 6HR MAX TEMP:  75;

LIMA           PTCLDY    60  46  59 S7        30.08R
6HR MIN TEMP:  58; 6HR MAX TEMP:  73;


$$
AND FOR LAKE MICHIGAN COASTAL AND OPEN LAKE BUOY OBSERVATIONS

STATION/POSITION TEMP    WIND        PRES    VSBY  WAVE
                 AIR SEA DIR/SP/G                  HT/PER
                 (F)     (DEG/KT/KT) (MB)    (MI)  (FT/S)
CALUMET HARBOR    66     180/  6/ 10   N/A
MICHIGAN CITY     68     160/ 15/ 17   N/A
BURNS HARBOR      67     180/ 13/ 17 1014.6S
SAINT JOSEPH      66     130/  3/  8 1015.2F
4 MI NW BRIDGMAN  62 49  230/ 16/ 17   N/A           1/ 2
MICHIGAN CITY     61 51  190/ 12/ 14   N/A           1/ 3

$$
&&



USA.gov is the U.S. government's official web portal to all federal, state and local government web resources and services.